CW3066 Weather Reports


time (UTC)temp
C
wind
direction
speed
KPH
gust
KPH
rain 1hr
cm
rain 24hr
cm
rain mn
cm
humidity
%
barometer
mb
20260503200050 17 349 0.0 6.4 0.00 0.00 0.00 26 1012.7
20260503194548 17 351 1.6 9.7 0.00 0.00 0.00 26 1012.8
20260503193047 17 349 1.6 8.0 0.00 0.00 0.00 27 1013.1
20260503191548 16 350 1.6 6.4 0.00 0.00 0.00 26 1013.2
20260503190057 16 349 1.6 9.7 0.00 0.00 0.00 26 1013.4
20260503184542 16 350 1.6 8.0 0.00 0.00 0.00 27 1013.8
20260503183040 16 351 1.6 9.7 0.00 0.00 0.00 28 1013.8
20260503181544 16 350 3.2 9.7 0.00 0.00 0.00 26 1014.3
20260503180040 16 348 0.0 8.0 0.00 0.00 0.00 28 1014.3
20260503174538 16 346 1.6 14.5 0.00 0.00 0.00 27 1014.5
20260503173037 16 348 0.0 6.4 0.00 0.00 0.00 28 1014.8
20260503171536 15 348 0.0 9.7 0.00 0.00 0.00 29 1015.2
20260503081536 0 355 0.0 0.0 0.00 0.00 0.00 87 1014.3
20260503071526 1 355 0.0 0.0 0.00 0.00 0.00 82 1014.0
20260503054506 4 355 0.0 0.0 0.00 0.00 0.00 64 1014.3
20260503053010 5 355 0.0 0.0 0.00 0.00 0.00 62 1014.3
20260503051500 5 355 0.0 0.0 0.00 0.00 0.00 60 1014.3
20260503050058 6 355 0.0 0.0 0.00 0.00 0.00 57 1014.3
20260503044558 6 355 0.0 0.0 0.00 0.00 0.00 55 1014.3
20260503043054 6 355 0.0 1.6 0.00 0.00 0.00 53 1014.3
20260503041553 6 355 0.0 1.6 0.00 0.00 0.00 52 1014.0
20260503040052 6 355 0.0 3.2 0.00 0.00 0.00 54 1013.8
20260503034551 6 355 0.0 0.0 0.00 0.00 0.00 60 1013.8
20260503033053 6 355 0.0 0.0 0.00 0.00 0.00 63 1013.7
20260503031550 6 355 0.0 3.2 0.00 0.00 0.00 65 1013.7
20260503030050 5 355 0.0 0.0 0.00 0.00 0.00 69 1013.7
20260503024548 6 355 0.0 0.0 0.00 0.00 0.00 69 1013.6
20260503023050 6 355 0.0 0.0 0.00 0.00 0.00 66 1013.2
20260503021547 7 355 0.0 0.0 0.00 0.00 0.00 64 1013.1
20260503020047 7 355 0.0 0.0 0.00 0.00 0.00 61 1012.9
20260503014545 8 355 0.0 0.0 0.00 0.00 0.00 57 1012.7
20260503013045 9 355 0.0 0.0 0.00 0.00 0.00 53 1012.6
20260503011545 10 355 0.0 0.0 0.00 0.00 0.00 51 1012.6
20260503010044 10 355 0.0 0.0 0.00 0.00 0.00 50 1012.4
20260503004544 10 355 0.0 1.6 0.00 0.00 0.00 47 1012.2
20260503003043 10 355 0.0 4.8 0.00 0.00 0.00 47 1012.1
20260503001543 10 355 0.0 4.8 0.00 0.00 0.00 46 1011.9
20260503000046 11 355 0.0 3.2 0.00 0.00 0.00 44 1011.7
20260502234550 11 351 0.0 6.4 0.00 0.00 0.00 43 1011.5
20260502233041 11 351 0.0 4.8 0.00 0.00 0.00 42 1011.5
20260502231545 12 355 0.0 6.4 0.00 0.00 0.00 43 1011.5
20260502230041 12 119 1.6 6.4 0.00 0.00 0.00 42 1011.5
20260502224540 11 355 0.0 3.2 0.00 0.00 0.00 44 1011.5
20260502223040 11 351 0.0 6.4 0.00 0.00 0.00 45 1011.8
20260502221539 11 355 1.6 6.4 0.00 0.00 0.00 45 1011.8
20260502220039 11 355 0.0 9.7 0.00 0.00 0.00 44 1011.7
20260502214543 12 351 0.0 6.4 0.00 0.00 0.00 45 1011.4
20260502213038 12 355 1.6 6.4 0.00 0.00 0.00 44 1011.5
20260502211539 12 351 0.0 8.0 0.00 0.00 0.00 44 1011.4
20260502210039 12 355 0.0 4.8 0.00 0.00 0.00 42 1011.4
20260502204536 13 351 1.6 6.4 0.00 0.00 0.00 39 1011.4
20260502203036 12 351 0.0 8.0 0.00 0.00 0.00 43 1011.6
20260502201542 12 351 0.0 4.8 0.00 0.00 0.00 42 1011.7